Waarnemingen

Advertentie
Mijn weer
Landsort, Zweden (2582): temperatuur & dauwpunt: 16.07.2018 18:00:00 - 22.07.2018 18:00:00 (CEST)Landsort, Zweden (2582): windsnelheid & windstoten: 16.07.2018 18:00:00 - 22.07.2018 18:00:00 (CEST)Landsort, Zweden (2582): windrichting: 16.07.2018 18:00:00 - 22.07.2018 18:00:00 (CEST)Landsort, Zweden (2582): luchtdruk: 16.07.2018 18:00:00 - 22.07.2018 18:00:00 (CEST)Landsort, Zweden (2582): zicht: 16.07.2018 18:00:00 - 22.07.2018 18:00:00 (CEST)Landsort, Zweden (2582): neerslag: 16.07.2018 18:00:00 - 22.07.2018 18:00:00 (CEST)
Datum & Tijd tt [°C] td [°C] ff [km/u] ff [kn] fx [km/u] fx [kn] dd ppp [hPa] vv [km] rr [mm]
22.07.2018 18:00:00 - - - - - - - - - -
22.07.2018 17:00:00 22,6 17,3 23 12 35 19 ZZW 1008,9 32 0,0
22.07.2018 16:00:00 22,7 16,7 29 15 39 21 ZZW 1009,0 30 0,0
22.07.2018 15:00:00 22,3 16,3 27 15 39 21 ZZW 1009,1 33 0,0
22.07.2018 14:00:00 22,2 15,3 25 13 36 20 ZZW 1009,3 26 0,0
22.07.2018 13:00:00 22,4 14,0 21 11 35 19 ZZW 1009,4 35 0,0
22.07.2018 12:00:00 22,0 12,8 20 11 34 18 ZW 1009,4 38 0,0
22.07.2018 11:00:00 20,8 13,3 21 11 29 16 WZW 1009,2 33 0,0
22.07.2018 10:00:00 19,9 13,1 18 10 32 17 WZW 1009,1 31 0,0
22.07.2018 09:00:00 19,4 13,1 21 12 40 22 W 1008,8 46 0,0
22.07.2018 08:00:00 18,9 13,7 22 12 40 22 W 1008,8 41 0,0
22.07.2018 07:00:00 18,6 14,1 28 15 41 22 W 1008,4 38 0,0
22.07.2018 06:00:00 18,4 13,7 29 16 41 22 W 1008,5 42 0,0
22.07.2018 05:00:00 18,2 13,3 28 15 38 21 W 1008,5 50 0,0
22.07.2018 04:00:00 18,7 13,1 27 15 39 21 WNW 1008,3 50 0,0
22.07.2018 03:00:00 19,6 11,9 29 15 39 21 WNW 1008,1 50 0,0
22.07.2018 02:00:00 20,8 11,7 30 16 37 20 WNW 1007,8 50 0,0
22.07.2018 01:00:00 21,8 13,7 22 12 32 17 WNW 1007,8 50 0,0
22.07.2018 00:00:00 23,0 14,8 21 12 27 15 W 1007,5 48 0,0
21.07.2018 23:00:00 22,3 18,3 17 9 22 12 WZW 1007,2 37 0,0
21.07.2018 22:00:00 22,3 18,7 15 8 28 15 ZW 1007,1 37 0,0
21.07.2018 21:00:00 22,3 19,1 16 9 36 19 ZW 1006,8 37 0,0
21.07.2018 20:00:00 23,3 17,5 26 14 38 21 ZW 1006,5 35 0,0
21.07.2018 19:00:00 23,7 18,8 22 12 38 21 ZW 1006,6 37 0,0
21.07.2018 18:00:00 23,5 18,6 25 14 36 19 ZW 1006,7 37 0,0
21.07.2018 17:00:00 23,9 19,2 21 12 31 17 ZZW 1006,8 31 0,0
21.07.2018 16:00:00 25,5 19,2 18 10 26 14 Z 1007,0 37 0,0
21.07.2018 15:00:00 24,3 17,8 18 10 26 14 Z 1007,2 33 0,0
21.07.2018 14:00:00 24,4 17,6 18 10 27 15 ZW 1007,4 28 0,0
21.07.2018 13:00:00 24,0 18,4 21 11 27 15 WZW 1007,5 29 0,0
21.07.2018 12:00:00 23,6 18,0 10 5 21 12 WZW 1007,6 23 0,0
21.07.2018 11:00:00 23,7 17,7 13 7 21 12 W 1007,5 23 0,0
21.07.2018 10:00:00 23,2 17,6 16 9 21 12 WNW 1007,5 24 0,0
21.07.2018 09:00:00 22,2 18,0 12 7 21 12 NW 1007,5 24 0,0
21.07.2018 08:00:00 21,4 18,2 14 8 31 17 NW 1007,5 18 0,0
21.07.2018 07:00:00 21,0 18,4 14 8 31 17 N 1007,2 15 0,0
21.07.2018 06:00:00 20,6 18,9 21 11 27 15 NNW 1007,3 14 0,0
21.07.2018 05:00:00 19,9 18,4 16 9 26 14 NNW 1007,3 14 0,0
21.07.2018 04:00:00 20,7 17,5 19 11 26 14 NNW 1007,0 32 0,0
21.07.2018 03:00:00 21,3 18,9 16 8 22 12 NNW 1006,9 35 0,0
21.07.2018 02:00:00 21,6 19,3 11 6 21 11 NNW 1007,0 37 0,0
21.07.2018 01:00:00 22,2 19,2 11 6 29 16 WNW 1007,1 28 0,0
21.07.2018 00:00:00 22,2 19,7 18 10 29 16 W 1007,2 37 0,0
20.07.2018 23:00:00 22,3 19,7 19 10 24 13 WZW 1007,6 45 0,0
20.07.2018 22:00:00 22,5 19,5 16 9 24 13 ZW 1007,8 44 0,0
20.07.2018 21:00:00 22,7 18,9 17 9 24 13 ZZW 1008,0 50 0,0
20.07.2018 20:00:00 23,1 18,8 14 8 21 11 ZZW 1008,5 45 0,0
20.07.2018 19:00:00 23,7 18,6 13 7 23 13 ZZW 1008,8 49 0,0
20.07.2018 18:00:00 24,4 18,3 13 7 23 13 ZZW 1008,8 36 0,0
20.07.2018 17:00:00 25,0 18,4 13 7 24 13 ZZW 1008,9 43 0,0
20.07.2018 16:00:00 25,5 17,4 15 8 24 13 ZW 1008,9 39 0,0
20.07.2018 15:00:00 25,6 15,9 15 8 22 12 ZZW 1009,4 40 0,0
20.07.2018 14:00:00 25,4 16,0 16 9 21 11 ZZW 1009,6 29 0,0
20.07.2018 13:00:00 24,9 16,1 13 7 20 11 ZW 1010,1 37 0,0
20.07.2018 12:00:00 25,7 12,2 8 4 11 6 WZW 1010,5 34 0,0
20.07.2018 11:00:00 25,3 14,4 6 3 11 6 W 1010,7 32 0,0
20.07.2018 10:00:00 23,8 15,8 6 4 16 9 W 1010,7 31 0,0
20.07.2018 09:00:00 24,1 16,6 9 5 16 9 WNW 1010,9 43 0,0
20.07.2018 08:00:00 22,2 16,5 11 6 16 8 NW 1011,2 46 0,0
20.07.2018 07:00:00 21,6 17,6 7 4 14 7 NW 1011,2 43 0,0
20.07.2018 06:00:00 21,4 17,2 9 5 14 7 NNW 1011,2 34 0,0
20.07.2018 05:00:00 20,7 17,9 9 5 13 7 NW 1011,3 36 0,0
20.07.2018 04:00:00 20,5 17,9 9 5 13 7 NW 1011,6 36 0,0
20.07.2018 03:00:00 20,5 17,5 9 5 11 6 NW 1011,8 42 0,0
20.07.2018 02:00:00 21,5 15,3 3 2 4 2 ONO 1012,1 50 0,0
20.07.2018 01:00:00 21,4 15,5 0 0 4 2 N 1012,5 50 0,0
20.07.2018 00:00:00 20,9 18,7 3 2 6 3 ONO 1012,7 13 0,0
19.07.2018 23:00:00 21,3 16,5 0 0 9 5 N 1012,9 37 0,0
19.07.2018 22:00:00 21,2 18,8 4 2 10 5 WNW 1012,9 32 0,0
19.07.2018 21:00:00 22,0 18,6 6 4 12 7 WNW 1013,1 43 0,0
19.07.2018 20:00:00 22,5 17,6 5 3 16 8 O 1012,7 39 0,0
19.07.2018 19:00:00 22,7 18,0 11 6 21 11 O 1012,4 39 0,0
19.07.2018 18:00:00 22,8 17,9 11 6 21 11 O 1012,6 37 0,0
19.07.2018 17:00:00 22,9 18,7 18 10 25 14 O 1012,9 32 0,0
19.07.2018 16:00:00 22,9 18,4 18 10 29 16 O 1013,2 32 0,0
19.07.2018 15:00:00 23,3 18,6 24 13 32 17 O 1013,2 29 0,0
19.07.2018 14:00:00 23,9 19,2 24 13 32 17 O 1013,1 29 0,0
19.07.2018 13:00:00 - - - - 31 17 - - - -
19.07.2018 12:00:00 22,6 18,6 24 13 31 17 ONO 1013,3 30 0,0
19.07.2018 11:00:00 23,0 18,7 22 12 27 15 ONO 1013,0 28 0,0
19.07.2018 10:00:00 22,4 19,2 21 11 27 15 ONO 1012,9 29 0,0
19.07.2018 09:00:00 23,2 18,3 23 12 30 16 NO 1012,8 33 0,0
19.07.2018 08:00:00 22,4 18,2 23 12 30 16 NO 1012,9 29 0,0
19.07.2018 07:00:00 22,0 17,6 24 13 28 15 NO 1012,7 35 0,0
19.07.2018 06:00:00 20,9 16,5 15 8 22 12 NNO 1012,5 37 0,0
19.07.2018 05:00:00 21,1 16,1 15 8 21 12 NNO 1012,4 39 0,0
19.07.2018 04:00:00 20,9 16,3 15 8 21 12 NNO 1012,6 41 0,0
19.07.2018 03:00:00 21,2 16,6 15 8 25 14 NNO 1012,6 45 0,0
19.07.2018 02:00:00 21,5 16,7 20 11 25 14 NO 1012,8 45 0,0
19.07.2018 01:00:00 21,8 17,4 21 12 26 14 NO 1012,9 46 0,0
19.07.2018 00:00:00 21,7 17,7 20 11 26 14 NO 1013,1 43 0,0
18.07.2018 23:00:00 21,8 18,2 19 11 25 14 NO 1013,1 39 0,0
18.07.2018 22:00:00 21,8 18,2 18 10 26 14 NO 1013,1 37 0,0
18.07.2018 21:00:00 22,0 18,4 22 12 26 14 ONO 1012,9 40 0,0
18.07.2018 20:00:00 22,3 18,3 18 10 26 14 ONO 1012,9 35 0,0
18.07.2018 19:00:00 22,8 18,3 20 11 26 14 ONO 1012,8 32 0,0
18.07.2018 18:00:00 22,3 19,1 16 9 29 16 ONO 1013,0 26 0,0
18.07.2018 17:00:00 22,6 19,4 16 9 34 19 ONO 1013,2 23 0,0
18.07.2018 16:00:00 22,9 19,5 26 14 35 19 ONO 1013,1 27 0,0
18.07.2018 15:00:00 23,1 19,3 29 16 34 18 O 1013,0 26 0,0
18.07.2018 14:00:00 22,6 19,0 17 9 29 16 ONO 1012,9 23 0,0
18.07.2018 13:00:00 23,3 18,8 20 11 34 18 O 1013,2 23 0,0
18.07.2018 12:00:00 22,6 19,2 26 14 34 19 ONO 1013,2 20 0,0
18.07.2018 11:00:00 22,5 19,1 29 16 34 19 O 1013,3 23 0,0
18.07.2018 10:00:00 22,0 18,8 26 14 34 19 ONO 1013,2 24 0,0
18.07.2018 09:00:00 21,9 18,9 27 15 34 19 ONO 1013,2 25 0,0
18.07.2018 08:00:00 22,0 18,6 28 15 34 18 ONO 1013,0 26 0,0
18.07.2018 07:00:00 21,8 18,8 23 12 29 16 NO 1012,9 28 0,0
18.07.2018 06:00:00 21,9 18,5 22 12 31 17 NO 1012,9 27 0,0
18.07.2018 05:00:00 21,6 18,6 26 14 31 17 ONO 1012,4 27 0,0
18.07.2018 04:00:00 21,8 18,8 23 13 40 21 NO 1012,5 22 0,0
18.07.2018 03:00:00 22,2 18,4 28 15 40 21 NO 1012,6 28 0,0
18.07.2018 02:00:00 23,0 17,5 32 18 39 21 NO 1012,8 43 0,0
18.07.2018 01:00:00 22,5 18,3 31 17 39 21 ONO 1013,1 36 0,0
18.07.2018 00:00:00 22,7 17,4 29 16 34 18 NO 1013,4 42 0,0
17.07.2018 23:00:00 22,6 17,7 23 12 29 16 NO 1013,4 40 0,0
17.07.2018 22:00:00 23,1 17,3 22 12 29 16 NO 1013,7 49 0,0
17.07.2018 21:00:00 23,5 16,3 25 14 30 16 NO 1013,4 50 0,0
17.07.2018 20:00:00 23,4 17,6 22 12 34 18 NO 1013,3 39 0,0
17.07.2018 19:00:00 22,9 18,2 29 15 34 19 ONO 1013,3 32 0,0
17.07.2018 18:00:00 23,2 18,5 30 16 34 19 ONO 1013,6 37 0,0
17.07.2018 17:00:00 24,8 18,3 26 14 31 17 O 1013,9 40 0,0
17.07.2018 16:00:00 24,2 18,2 20 11 27 15 ONO 1014,0 32 0,0
17.07.2018 15:00:00 24,2 18,6 23 12 26 14 NO 1014,4 35 0,0
17.07.2018 14:00:00 23,8 18,2 18 10 27 15 NO 1014,8 30 0,0
17.07.2018 13:00:00 23,0 18,5 21 11 27 15 ONO 1014,9 28 0,0
17.07.2018 12:00:00 23,1 18,2 23 12 26 14 NO 1014,9 32 0,0
17.07.2018 11:00:00 23,4 18,9 17 9 24 13 NO 1015,0 25 0,0
17.07.2018 10:00:00 22,5 18,9 18 10 34 18 ONO 1014,7 29 0,0
17.07.2018 09:00:00 22,5 18,7 22 12 36 19 ONO 1014,8 32 0,0
17.07.2018 08:00:00 22,6 18,2 30 16 36 19 ONO 1014,3 34 0,0
17.07.2018 07:00:00 22,4 17,7 27 15 34 19 NO 1014,4 33 0,0
17.07.2018 06:00:00 22,2 16,7 29 15 33 18 NO 1014,5 48 0,0
17.07.2018 05:00:00 21,6 16,3 19 11 23 13 NO 1014,6 50 0,0
17.07.2018 04:00:00 21,4 15,2 17 9 22 12 NNO 1014,6 50 0,0
17.07.2018 03:00:00 21,8 16,1 15 8 20 11 NNO 1014,8 48 0,0
17.07.2018 02:00:00 22,2 15,5 15 8 19 10 NNO 1015,0 49 0,0
17.07.2018 01:00:00 22,1 16,4 12 7 22 12 NNO 1015,3 46 0,0
17.07.2018 00:00:00 22,4 17,3 16 8 22 12 NO 1015,5 41 0,0
16.07.2018 23:00:00 22,4 18,6 18 10 21 11 NO 1015,2 50 0,0
16.07.2018 22:00:00 22,5 19,5 14 8 19 10 ONO 1015,2 50 0,0
16.07.2018 21:00:00 22,7 19,7 14 7 22 12 O 1015,2 47 0,0
16.07.2018 20:00:00 23,2 19,1 16 9 22 12 O 1014,8 46 0,0
16.07.2018 19:00:00 23,8 19,1 18 10 22 12 O 1014,8 45 0,0
16.07.2018 18:00:00 24,4 17,4 16 9 19 11 O 1014,8 40 0,0

tt = temperatuur
td = dauwpunt
ff = windsnelheid
fx = windstoten
dd = windrichting
ppp = luchtdruk
vv = zicht
rr = neerslag

Weerstations in de omgeving